FW1194 Weather Reports


Display with metric or nautical units.
time (UTC)temp
F
wind
direction
speed
MPH
gust
MPH
rain 1hr
in
rain 24hr
in
rain mn
in
humidity
%
barometer
mb
20260906030217 71 0 3.0 6.0 0.00 0.00 0.00 87 1015.3
20260906025216 71 0 5.0 8.0 0.00 0.00 0.00 86 1015.3
20260906024217 71 0 5.0 9.0 0.00 0.00 0.00 86 1015.4
20260906023217 71 0 7.0 12.0 0.00 0.00 0.00 85 1015.3
20260906022236 72 68 5.0 7.0 0.00 0.00 0.00 85 1015.1
20260906021216 72 0 5.0 9.0 0.00 0.00 0.00 85 1015.1
20260906020236 72 90 5.0 9.0 0.00 0.00 0.00 84 1015.1
20260906015217 72 0 6.0 12.0 0.00 0.00 0.00 84 1015.3
20260906014216 72 0 4.0 8.0 0.00 0.00 0.00 84 1015.2
20260906013217 72 45 4.0 7.0 0.00 0.00 0.00 84 1015.2
20260906012236 72 45 6.0 9.0 0.00 0.00 0.00 84 1015.1
20260906011216 72 45 4.0 5.0 0.00 0.00 0.00 83 1015.2
20260906010216 72 0 2.0 3.0 0.00 0.00 0.00 83 1015.1
20260906005216 72 45 3.0 4.0 0.00 0.00 0.00 83 1014.9
20260906004216 72 45 1.0 2.0 0.00 0.00 0.00 83 1014.8
20260906003216 72 23 4.0 9.0 0.00 0.00 0.00 83 1014.6
20260906002216 72 45 3.0 5.0 0.00 0.00 0.00 84 1014.7
20260906001217 73 68 2.0 4.0 0.00 0.00 0.00 84 1014.4
20260906000219 73 45 6.0 11.0 0.00 0.00 0.00 83 1014.5
20260905235216 73 45 11.0 17.0 0.00 0.00 0.00 82 1014.4
20260905234216 74 68 9.0 12.0 0.00 0.00 0.00 82 1014.5
20260905233216 75 23 9.0 15.0 0.00 0.00 0.00 81 1014.5
20260905232216 76 68 7.0 12.0 0.00 0.00 0.00 80 1014.2
20260905231216 77 0 6.0 9.0 0.00 0.00 0.00 79 1014.3
20260905230256 77 0 8.0 13.0 0.00 0.00 0.00 78 1014.1
20260905225216 78 0 7.0 13.0 0.00 0.00 0.00 76 1013.9
20260905224236 79 68 8.0 10.0 0.00 0.00 0.00 76 1014.1
20260905223216 80 45 8.0 17.0 0.00 0.00 0.00 74 1013.9
20260905222216 80 45 7.0 11.0 0.00 0.00 0.00 74 1013.7
20260905221216 81 45 7.0 13.0 0.00 0.00 0.00 73 1013.8
20260905220236 81 68 3.0 6.0 0.00 0.00 0.00 71 1014.0
20260905215216 83 90 6.0 12.0 0.00 0.00 0.00 69 1013.9
20260905214216 83 23 4.0 6.0 0.00 0.00 0.00 67 1013.7
20260905213216 83 0 2.0 4.0 0.00 0.00 0.00 69 1013.8
20260905212256 83 315 4.0 5.0 0.00 0.00 0.00 69 1013.6
20260905211216 82 0 1.0 2.0 0.00 0.00 0.00 72 1013.7
20260905210216 81 68 1.0 2.0 0.00 0.00 0.00 73 1013.7
20260905205216 81 68 4.0 6.0 0.00 0.00 0.00 73 1013.8
20260905204216 81 45 4.0 7.0 0.00 0.00 0.00 73 1013.9
20260905203216 80 315 2.0 4.0 0.00 0.00 0.00 75 1014.0
20260905202256 80 23 3.0 4.0 0.00 0.00 0.00 75 1014.0
20260905201216 80 68 4.0 8.0 0.00 0.00 0.00 78 1014.0
20260905200216 78 90 4.0 7.0 0.00 0.00 0.00 79 1013.8
20260905195216 78 0 3.0 5.0 0.00 0.00 0.00 79 1014.1
20260905194216 78 68 1.0 2.0 0.00 0.00 0.00 80 1014.1
20260905193216 78 23 3.0 5.0 0.00 0.00 0.00 79 1014.1
20260905192216 78 23 4.0 6.0 0.00 0.00 0.00 79 1014.3
20260905191216 78 315 5.0 8.0 0.00 0.00 0.00 80 1014.3
20260905190216 78 0 2.0 4.0 0.00 0.00 0.00 79 1014.2
20260905185216 78 45 4.0 6.0 0.00 0.00 0.00 79 1014.5
20260905184216 78 45 8.0 10.0 0.00 0.00 0.00 79 1014.4
20260905183216 78 45 4.0 6.0 0.00 0.00 0.00 80 1014.5
20260905182215 78 315 3.0 6.0 0.00 0.00 0.00 79 1014.5
20260905181216 78 45 2.0 4.0 0.00 0.00 0.00 79 1014.4
20260905180215 79 23 3.0 5.0 0.00 0.00 0.00 79 1014.4
20260905175216 79 45 4.0 7.0 0.00 0.00 0.00 78 1014.3
20260905174216 79 45 5.0 11.0 0.00 0.00 0.00 78 1014.3
20260905173216 79 68 4.0 8.0 0.00 0.00 0.00 79 1014.2
20260905172216 79 338 5.0 10.0 0.00 0.00 0.00 77 1014.3
20260905171216 80 23 3.0 6.0 0.00 0.00 0.00 77 1014.4
20260905170216 81 45 7.0 10.0 0.00 0.00 0.00 76 1014.5
20260905165215 81 135 2.0 4.0 0.00 0.00 0.00 76 1014.6
20260905164215 82 23 3.0 6.0 0.00 0.00 0.00 74 1014.6
20260905163215 82 45 7.0 9.0 0.00 0.00 0.00 75 1014.5
20260905162215 82 45 2.0 4.0 0.00 0.00 0.00 75 1014.4
20260905161215 82 23 4.0 7.0 0.00 0.00 0.00 75 1014.5
20260905160215 82 68 7.0 13.0 0.00 0.00 0.00 76 1014.4
20260905155216 81 45 5.0 8.0 0.00 0.00 0.00 77 1014.4
20260905154217 81 45 3.0 8.0 0.00 0.00 0.00 77 1014.2
20260905153217 81 23 3.0 8.0 0.00 0.00 0.00 78 1014.2
20260905152218 80 45 4.0 7.0 0.00 0.00 0.00 79 1014.1
20260905151217 79 68 5.0 9.0 0.00 0.00 0.00 82 1014.0
20260905150237 78 45 4.0 7.0 0.00 0.00 0.00 84 1013.9
20260905145217 77 45 5.0 9.0 0.00 0.00 0.00 83 1013.8
20260905144237 78 68 9.0 12.0 0.00 0.00 0.00 82 1013.7
20260905143237 78 45 3.0 5.0 0.00 0.00 0.00 84 1013.8
20260905142217 77 68 5.0 9.0 0.00 0.00 0.00 85 1013.9
20260905141217 76 23 8.0 13.0 0.00 0.00 0.00 87 1013.7
20260905140217 76 45 10.0 14.0 0.00 0.00 0.00 89 1013.6
20260905135258 75 23 4.0 8.0 0.00 0.00 0.00 90 1013.5
20260905134217 74 68 4.0 7.0 0.00 0.00 0.00 92 1013.6
20260905133217 73 90 4.0 5.0 0.00 0.00 0.00 92 1013.7
20260905132217 73 45 3.0 6.0 0.00 0.00 0.00 92 1014.0
20260905131217 73 23 4.0 6.0 0.00 0.00 0.00 92 1013.9
20260905130217 73 45 6.0 9.0 0.00 0.00 0.00 92 1013.4
20260905125217 73 45 5.0 10.0 0.00 0.00 0.00 92 1013.3
20260905124217 73 23 5.0 9.0 0.00 0.00 0.00 92 1013.0
20260905123217 74 68 5.0 8.0 0.00 0.00 0.00 92 1013.0
20260905122217 74 68 3.0 6.0 0.00 0.00 0.00 92 1012.8
20260905121217 74 45 2.0 2.0 0.00 0.00 0.00 92 1012.8
20260905120218 74 45 3.0 5.0 0.00 0.00 0.00 92 1012.7
20260905115217 74 45 3.0 4.0 0.00 0.00 0.00 92 1012.6
20260905114237 74 68 2.0 2.0 0.00 0.00 0.00 91 1012.2
20260905113217 74 68 1.0 2.0 0.00 0.00 0.00 91 1012.1
20260905112217 74 68 2.0 3.0 0.00 0.00 0.00 91 1012.0
20260905111217 74 45 2.0 4.0 0.00 0.00 0.00 91 1012.0
20260905110218 74 45 2.0 3.0 0.00 0.00 0.00 91 1011.9
20260905105217 74 45 4.0 7.0 0.00 0.00 0.00 90 1011.9
20260905104217 75 68 3.0 3.0 0.00 0.00 0.00 90 1011.9
20260905103217 75 68 1.0 2.0 0.00 0.00 0.00 90 1011.9
20260905102217 75 45 3.0 5.0 0.00 0.00 0.00 90 1012.1
20260905101217 75 45 2.0 4.0 0.00 0.00 0.00 89 1011.9
20260905100217 75 0.0 1.0 0.00 0.00 0.00 89 1011.9
20260905095217 75 0.0 0.0 0.00 0.00 0.00 89 1011.9
20260905094237 75 0.0 0.0 0.00 0.00 0.00 89 1011.8
20260905093217 75 0.0 1.0 0.00 0.00 0.00 89 1011.8
20260905092217 75 0.0 0.0 0.00 0.00 0.00 89 1011.7
20260905091217 75 0.0 0.0 0.00 0.00 0.00 89 1011.6
20260905090217 75 0.0 0.0 0.00 0.00 0.00 89 1011.6
20260905085217 75 0.0 1.0 0.00 0.00 0.00 89 1011.6
20260905084217 75 0.0 0.0 0.00 0.00 0.00 88 1011.6
20260905083217 75 0.0 0.0 0.00 0.00 0.00 88 1011.7
20260905082217 75 0.0 0.0 0.00 0.00 0.00 88 1011.7
20260905081237 75 203 1.0 1.0 0.00 0.00 0.00 88 1011.6
20260905080217 76 0.0 1.0 0.00 0.00 0.00 88 1011.7
20260905075217 76 203 1.0 2.0 0.00 0.00 0.00 87 1011.6
20260905074216 76 203 1.0 1.0 0.00 0.00 0.00 87 1011.6
20260905073237 76 0.0 0.0 0.00 0.00 0.00 87 1011.6
20260905072236 76 203 1.0 2.0 0.00 0.00 0.00 87 1011.6
20260905071217 76 203 1.0 1.0 0.00 0.00 0.00 87 1011.7
20260905070217 76 45 1.0 2.0 0.00 0.00 0.00 86 1011.8
20260905065217 76 0.0 0.0 0.00 0.00 0.00 86 1011.8
20260905064216 77 0.0 0.0 0.00 0.00 0.00 86 1011.8
20260905063257 77 0.0 0.0 0.00 0.00 0.00 85 1011.9
20260905062216 77 0.0 0.0 0.00 0.00 0.00 85 1012.0
20260905061216 77 0.0 0.0 0.00 0.00 0.00 85 1012.0
20260905060237 77 0.0 0.0 0.00 0.00 0.00 84 1012.1
20260905055237 78 0.0 0.0 0.00 0.00 0.00 84 1012.1
20260905054216 78 0.0 0.0 0.00 0.00 0.00 83 1012.1
20260905053216 78 0.0 1.0 0.00 0.00 0.00 83 1012.0
20260905052216 78 0.0 1.0 0.00 0.00 0.00 83 1012.0
20260905051216 79 45 2.0 3.0 0.00 0.00 0.00 82 1011.9
20260905050216 79 0 1.0 2.0 0.00 0.00 0.00 82 1012.0
20260905045217 79 68 2.0 3.0 0.00 0.00 0.00 82 1012.0
20260905044237 79 68 2.0 3.0 0.00 0.00 0.00 82 1012.0
20260905043257 80 68 3.0 4.0 0.00 0.00 0.00 81 1011.9
20260905042217 80 68 3.0 4.0 0.00 0.00 0.00 81 1012.0
20260905041217 80 90 3.0 4.0 0.00 0.00 0.00 81 1011.8
20260905040217 81 68 2.0 3.0 0.00 0.00 0.00 80 1011.9
20260905035217 81 90 3.0 3.0 0.00 0.00 0.00 80 1011.8
20260905034217 81 0.0 1.0 0.00 0.00 0.00 79 1012.0
20260905033217 82 0 1.0 1.0 0.00 0.00 0.00 79 1012.3
20260905032217 82 68 4.0 5.0 0.00 0.00 0.00 79 1012.5
20260905031237 83 225 2.0 2.0 0.00 0.00 0.00 80 1012.5